Enid Vance AFB, OK

10:21 PM CDT on July 20, 2017 (GMT -0500)
Vance Air Force Base

Weather History for KEND - June, 2013

Change the Weather History Date:

Sunday, June 23, 2013

  Actual Average Record
Temperature  
Mean Temperature 84 °F -  
Max Temperature 91 °F 87 °F 101 °F (2010)
Min Temperature 76 °F 67 °F 59 °F (2004)
Cooling Degree Days 18    
Growing Degree Days 34 (Base 50)    
Moisture  
Dew Point 66 °F    
Average Humidity 56    
Maximum Humidity 77    
Minimum Humidity 38    
Precipitation  
Precipitation 0.00 in - - ()
Sea Level Pressure  
Sea Level Pressure 29.82 in    
Wind  
Wind Speed 19 mph (SSE)    
Max Wind Speed 26 mph    
Max Gust Speed 38 mph    
Visibility 10 miles    
Events Thunderstorm    
Averages and records for this station are not official NWS values.
T = Trace of Precipitation, MM = Missing Value Source: NWS Daily Summary

Daily Weather History Graph

Daily Weather History Graph

Search for Another Location

Airport or City:

Trip Planner

Search our weather history database for the weather conditions in past years. The results will help you decide how hot, cold, wet, or windy it might be!

Date:

Astronomy

Jun. 23, 2013 Rise Set
Actual Time 6:14 AM CDT 8:53 PM CDT
Civil Twilight 5:44 AM CDT 9:23 PM CDT
Nautical Twilight 5:06 AM CDT 10:01 PM CDT
Astronomical Twilight 4:24 AM CDT 10:43 PM CDT
Moon 9:09 PM CDT (6/23) 6:31 AM CDT (6/23)
Length of Visible Light 15h 39m
Length of Day
14h 38m
Full, 100% of the Moon is Illuminated
Jun 23
Full
Jun 29
Last Quarter
Jul 8
New
Jul 15
First Quarter
Jul 22
Full

Hourly Weather History & Observations

Time (CDT) Temp. Heat Index Dew Point Humidity Pressure Visibility Wind Dir Wind Speed Gust Speed Precip Events Conditions
12:58 AM 77.2 °F - 69.4 °F 77% 29.82 in 10.0 mi SE 12.7 mph - N/A   Partly Cloudy
1:58 AM 77.4 °F - 68.7 °F 75% 29.81 in 10.0 mi SSE 12.7 mph - N/A   Scattered Clouds
2:58 AM 79.2 °F - 67.6 °F 68% 29.80 in 10.0 mi SSE 21.9 mph - N/A   Partly Cloudy
3:58 AM 78.1 °F - 67.6 °F 70% 29.80 in 10.0 mi SSE 20.7 mph - N/A   Clear
4:58 AM 77.5 °F - 67.3 °F 71% 29.80 in 10.0 mi South 18.4 mph 27.6 mph N/A   Clear
5:58 AM 77.0 °F - 67.1 °F 71% 29.80 in 10.0 mi SSE 18.4 mph - N/A   Clear
6:58 AM 76.6 °F - 67.3 °F 73% 29.81 in 10.0 mi South 18.4 mph 25.3 mph N/A   Clear
7:58 AM 78.8 °F - 66.6 °F 66% 29.82 in 10.0 mi South 23.0 mph 25.3 mph N/A   Clear
8:58 AM 81.1 °F 83.4 °F 66.6 °F 61% 29.82 in 10.0 mi South 24.2 mph 31.1 mph N/A   Clear
9:58 AM 84.0 °F 86.8 °F 67.1 °F 57% 29.84 in 10.0 mi South 26.5 mph 32.2 mph N/A   Clear
10:58 AM 86.9 °F 89.3 °F 66.0 °F 50% 29.83 in 10.0 mi South 26.5 mph 32.2 mph N/A   Clear
11:43 AM 89.6 °F 92.2 °F 66.2 °F 46% 29.88 in 10.0 mi South 25.3 mph 38.0 mph N/A Thunderstorm Mostly Cloudy
11:55 AM 87.8 °F 90.4 °F 66.2 °F 49% 29.84 in 10.0 mi South 23.0 mph 31.1 mph N/A Thunderstorm Mostly Cloudy
12:19 PM 89.6 °F 92.2 °F 66.2 °F 46% 29.88 in 10.0 mi South 20.7 mph 28.8 mph N/A   Mostly Cloudy
12:55 PM 89.6 °F 92.2 °F 66.2 °F 46% 29.84 in 10.0 mi South 24.2 mph 33.4 mph N/A   Mostly Cloudy
1:55 PM 91.4 °F 93.2 °F 64.4 °F 41% 29.82 in 10.0 mi South 23.0 mph 35.7 mph N/A   Scattered Clouds
2:56 PM 91.4 °F 92.1 °F 62.6 °F 38% 29.80 in 10.0 mi South 26.5 mph 34.5 mph N/A   Scattered Clouds
3:55 PM 91.4 °F 92.1 °F 62.6 °F 38% 29.79 in 10.0 mi South 24.2 mph 35.7 mph N/A   Scattered Clouds
4:55 PM 91.4 °F 92.1 °F 62.6 °F 38% 29.78 in 10.0 mi South 25.3 mph 38.0 mph N/A   Scattered Clouds
5:55 PM 89.6 °F 91.1 °F 64.4 °F 43% 29.77 in 10.0 mi South 21.9 mph 38.0 mph N/A   Scattered Clouds
6:58 PM 88.7 °F 89.8 °F 63.7 °F 43% 29.78 in 10.0 mi South 21.9 mph 33.4 mph N/A   Clear
7:58 PM 86.9 °F 89.3 °F 66.2 °F 50% 29.79 in 10.0 mi SSE 20.7 mph 27.6 mph N/A   Clear
8:58 PM 84.7 °F 87.1 °F 66.2 °F 54% 29.80 in 10.0 mi SSE 16.1 mph - N/A   Clear
9:58 PM 83.5 °F 85.5 °F 65.7 °F 55% 29.82 in 10.0 mi SSE 17.3 mph 24.2 mph N/A   Partly Cloudy
10:58 PM 82.8 °F 84.2 °F 63.9 °F 53% 29.83 in 10.0 mi SSE 18.4 mph 26.5 mph N/A   Clear
11:58 PM 78.4 °F - 68.2 °F 71% 29.84 in 10.0 mi SE 12.7 mph - N/A   Clear